Home > Weather > Udon Thani > Past weeks

Flag for Thailand Weather for the Past 2 Weeks in Udon Thani, Thailand

Now
66 °F

Clear.


Feels Like: 66 °F
Forecast: 66 / 94 °F
Wind: No wind

Location: Udon Thani Airport

Current Time: Feb 14, 2016 at 3:02:46 AM

Latest Report: Feb 14, 2016 at 1:00 AM


Visibility: 4 mi

Pressure: 29.86 "Hg

Humidity: 68%

Dew point: 55 °F

Location of Udon ThaniLocation

Historic Weather in Udon Thani — Graph

°F

Udon Thani Temperature Yesterday

Maximum temperature yesterday: 95 °F (at 2:00 PM)
Minimum temperature yesterday: 61 °F (at 7:00 AM)
Average temperature yesterday: 80 °F

High & Low Weather Summary for the Past Weeks

 TemperatureHumidityPressure
High95 °F (Feb 13, 2:00 PM)100% (Jan 30, 6:00 AM)30.30 "Hg (Jan 30, 6:00 AM)
Low45 °F (Feb 8, 7:00 AM)19% (Feb 8, 4:00 PM)29.77 "Hg (Feb 12, 4:00 PM)
Average73 °F55%29.98 "Hg
* Reported Jan 30 6:00 AM — Feb 14 1:00 AM, Udon Thani, Weather by CustomWeather, © 2016

Note: Actual official high and low records may vary slightly from our data, if they occured in-between our weather recording intervals... More about our weather records

Advertising

Udon Thani Weather History for the Previous 24 Hours

 ConditionsComfort  
Time TempWeatherWind HumidityBarometerVisibility
1:00 AM
Sun, Feb 14
66 °FClear.No wind68%29.86 "Hg4 mi
10:00 PM
Sat, Feb 13
72 °FClear.2 mph65%29.86 "Hg4 mi
9:00 PM73 °FClear.2 mph57%29.86 "Hg4 mi
8:00 PM75 °FClear.1 mph47%29.86 "Hg4 mi
7:00 PM79 °FClear.1 mph42%29.83 "Hg5 mi
6:00 PM88 °FClear.3 mph27%29.83 "Hg5 mi
5:00 PM93 °FClear.6 mph21%29.80 "Hg6 mi
4:00 PM95 °FClear.7 mph20%29.80 "Hg6 mi
3:00 PM95 °FClear.6 mph20%29.80 "Hg6 mi
2:00 PM95 °FClear.7 mph20%29.83 "Hg6 mi
1:00 PM93 °FClear.8 mph21%29.86 "Hg6 mi
12:00 PM91 °FClear.6 mph28%29.92 "Hg5 mi
11:00 AM86 °FHaze.6 mph35%29.95 "Hg3 mi
10:00 AM79 °FHaze.2 mph54%29.98 "Hg2 mi
9:00 AM73 °FFog.3 mph61%29.95 "Hg2 mi
8:00 AM64 °FFog.2 mph88%29.92 "Hg2 mi
7:00 AM61 °FFog.No wind88%29.92 "Hg2 mi
6:00 AM63 °FFog.1 mph83%29.89 "Hg2 mi
Weather by CustomWeather, © 2016

See weather overviewHow to use our weather pages